Lake Chatuge Weather Center

Moon Phase Calendar



Lake Chatuge Water Level
Online Cameras

 


      

Current Conditions in Hiawassee
4/17/2024 6:39:31 PM

61°F
Feels Like 61
Clouds
Humidity
82%
Pressure
30.09"
Wind
1.4 mph (ESE)
Dew Point
56°F
UV Index
0/10 (Low)
Visibility
6 mi

Hourly Forecast

Date & Time Wed, Apr 17
6:00 PM
Wed, Apr 17
7:00 PM
Wed, Apr 17
8:00 PM
Wed, Apr 17
9:00 PM
Wed, Apr 17
10:00 PM
Wed, Apr 17
11:00 PM
Thu, Apr 18
12:00 AM
Thu, Apr 18
1:00 AM
Thu, Apr 18
2:00 AM
Thu, Apr 18
3:00 AM
Thu, Apr 18
4:00 AM
Thu, Apr 18
5:00 AM
Thu, Apr 18
6:00 AM
Thu, Apr 18
7:00 AM
Thu, Apr 18
8:00 AM
Thu, Apr 18
9:00 AM
Thu, Apr 18
10:00 AM
Thu, Apr 18
11:00 AM
Thu, Apr 18
12:00 PM
Thu, Apr 18
1:00 PM
Thu, Apr 18
2:00 PM
Thu, Apr 18
3:00 PM
Thu, Apr 18
4:00 PM
Thu, Apr 18
5:00 PM
Thu, Apr 18
6:00 PM
Thu, Apr 18
7:00 PM
Thu, Apr 18
8:00 PM
Thu, Apr 18
9:00 PM
Thu, Apr 18
10:00 PM
Thu, Apr 18
11:00 PM
Fri, Apr 19
12:00 AM
Fri, Apr 19
1:00 AM
Fri, Apr 19
2:00 AM
Fri, Apr 19
3:00 AM
Fri, Apr 19
4:00 AM
Fri, Apr 19
5:00 AM
Fri, Apr 19
6:00 AM
Fri, Apr 19
7:00 AM
Fri, Apr 19
8:00 AM
Fri, Apr 19
9:00 AM
Fri, Apr 19
10:00 AM
Fri, Apr 19
11:00 AM
Fri, Apr 19
12:00 PM
Fri, Apr 19
1:00 PM
Fri, Apr 19
2:00 PM
Fri, Apr 19
3:00 PM
Fri, Apr 19
4:00 PM
Fri, Apr 19
5:00 PM
Condition
Rain

Clouds

Clouds

Clouds

Clouds

Clouds

Clouds

Clouds

Clouds

Clouds

Clouds

Clouds

Clouds

Clouds

Clouds

Clear

Clear

Clear

Clear

Clear

Clear

Clear

Clear

Clear

Clear

Clear

Clear

Clouds

Clouds

Clouds

Clouds

Clouds

Clouds

Clouds

Rain

Rain

Clouds

Rain

Rain

Rain

Clouds

Clouds

Clouds

Rain

Rain

Rain

Rain

Rain
Temperature 61°F61°F61°F60°F60°F58°F56°F56°F56°F55°F55°F54°F54°F54°F57°F63°F68°F73°F77°F81°F81°F82°F82°F81°F79°F74°F66°F64°F63°F62°F62°F61°F60°F59°F58°F59°F59°F59°F60°F61°F64°F68°F72°F74°F72°F74°F75°F73°F
Feels Like 61°F61°F60°F59°F60°F58°F55°F55°F55°F55°F54°F54°F54°F53°F57°F62°F68°F73°F77°F80°F80°F80°F80°F80°F79°F74°F65°F63°F62°F62°F62°F60°F59°F58°F58°F59°F59°F59°F60°F61°F64°F68°F72°F74°F72°F74°F75°F73°F
Cloudiness 100%100%100%100%100%100%100%100%100%99%94%62%46%37%31%0%0%0%0%0%0%0%1%1%1%1%10%100%100%100%100%100%100%57%78%86%89%91%93%100%100%100%98%90%87%51%47%51%
Visibility 6 mi6 mi6 mi6 mi6 mi6 mi6 mi6 mi6 mi6 mi6 mi6 mi6 mi6 mi6 mi6 mi6 mi6 mi6 mi6 mi6 mi6 mi6 mi6 mi6 mi6 mi6 mi6 mi6 mi6 mi6 mi6 mi6 mi6 mi6 mi6 mi6 mi6 mi6 mi6 mi6 mi6 mi6 mi6 mi6 mi6 mi6 mi6 mi
Precipitation 91%80%80%46%37%25%15%7%0%0%0%0%0%0%0%0%0%0%0%0%0%0%0%0%0%0%0%0%0%0%0%0%0%20%95%100%80%100%100%98%74%50%27%31%59%100%100%100%
Humidity 82%82%84%85%85%87%90%91%93%95%96%96%96%96%93%83%70%54%43%36%32%30%29%29%37%53%66%68%71%70%70%72%74%79%89%96%95%97%98%96%88%77%66%64%74%67%63%68%
Dew Point 55°F56°F56°F55°F55°F54°F52°F52°F52°F53°F52°F52°F51°F51°F54°F56°F56°F54°F52°F51°F48°F47°F46°F45°F50°F55°F53°F52°F52°F52°F51°F50°F50°F51°F54°F57°F56°F57°F58°F58°F59°F59°F59°F60°F62°F61°F60°F60°F
Pressure 30.09"30.09"30.09"30.09"30.12"30.12"30.12"30.09"30.09"30.09"30.09"30.09"30.09"30.12"30.12"30.12"30.12"30.09"30.09"30.06"30.03"30.03"30"29.97"29.97"30"30.03"30.03"30.06"30.03"30.03"30"30.03"30.03"30.03"30.03"30.03"30.06"30.06"30.03"30.03"30.03"30"30"30"29.97"29.97"29.97"
Wind Speed 3.4 mph1.4 mph1.1 mph0.9 mph1.9 mph1.7 mph2.3 mph2.4 mph2.6 mph1.7 mph2.1 mph2.2 mph2.6 mph2.4 mph1.7 mph2 mph2.4 mph2.8 mph2.4 mph2.4 mph4 mph4.5 mph3.7 mph3.5 mph4.5 mph3.9 mph3.5 mph3.7 mph3.2 mph3.5 mph2.8 mph2.7 mph1.7 mph2.7 mph4.3 mph3.8 mph0.9 mph3.4 mph3 mph1.3 mph1.5 mph3.5 mph6.1 mph7.4 mph8.1 mph7.9 mph9.3 mph9.6 mph
Wind
Direction
343°
NNW
107°
ESE
291°
WNW
133°
SE
70°
ENE
67°
ENE

N

N
345°
NNW
338°
NNW
360°
N

N

N

N
24°
NNE
320°
NW
322°
NW
288°
WNW
289°
WNW
264°
W
245°
WSW
245°
WSW
243°
WSW
212°
SSW
194°
SSW
164°
SSE
158°
SSE
115°
ESE
107°
ESE
115°
ESE
134°
SE
91°
E
286°
WNW
340°
NNW
15°
NNE
77°
ENE
60°
ENE
291°
WNW
352°
N
224°
SW
258°
WSW
267°
W
279°
W
283°
WNW
291°
WNW
285°
WNW
291°
WNW
289°
WNW

Daily Forecast

Date High Low Precip. Humidity
Today
Apr 17

Rain
72 °F
58 °F
100%
57%
Thursday
Apr 18

Clear
82 °F
54 °F
15%
36%
Friday
Apr 19

Rain
75 °F
58 °F
100%
64%
Saturday
Apr 20

Clouds
71 °F
52 °F
0%
68%
Sunday
Apr 21

Rain
51 °F
49 °F
100%
95%
Monday
Apr 22

Rain
48 °F
42 °F
100%
98%
Tuesday
Apr 23

Clear
67 °F
40 °F
0%
38%
Wednesday
Apr 24

Clouds
72 °F
47 °F
0%
51%
Thursday
Apr 25

Rain
77 °F
55 °F
20%
42%
Friday
Apr 26

Rain
64 °F
54 °F
45%
87%
Saturday
Apr 27

Clouds
67 °F
53 °F
0%
67%
Sunday
Apr 28

Clouds
77 °F
55 °F
0%
49%
Monday
Apr 29

Clouds
80 °F
58 °F
0%
42%
Tuesday
Apr 30

Rain
78 °F
64 °F
20%
44%
Wednesday
May 1

Clouds
77 °F
55 °F
0%
30%
Thursday
May 2

Clouds
76 °F
55 °F
0%
35%

Temperature 8-14 Day Outlook



Precipitation 8-14 Day Outlook




Quick Links
Lake Chatuge News
Lake Chatuge Photos
Lake Chatuge Videos




About Us
Contact Us
Site Map
Search Site
Advertise With Us
   
Chatuge.USLakes.info
THE LAKE CHATUGE WEBSITE

Copyright 2024, Lakes Online
Privacy    |    Legal